Regional Weather Roundup
Issued by NWS Kansas City/Pleasant Hill, MO

Home | Current Version | Previous Version | Text Only | Print | Product List | Glossary On
Versions: 1 2 3 4 5 6 7 8 9 10 11 12 13 14 15 16 17 18 19 20 21 22 23 24 25 26 27 28
000
ASUS43 KEAX 231610
RWREAX

WEATHER ROUNDUP FOR EASTERN KANSAS AND NORTHWEST MISSOURI
NATIONAL WEATHER SERVICE KANSAS CITY/PLEASANT HILL MO
1100 AM CDT FRI JUN 23 2017

KSZ040-057-103>105-MOZ028-029-037-043-231700-
...KANSAS CITY METROPOLITAN AREA...

CITY           SKY/WX    TMP DP  RH WIND       PRES   REMARKS
K.C. INTL      PTSUNNY   80  59  48 N17       29.90R
K.C. DOWNTOWN  PTSUNNY   82  61  48 N10       29.88R
LEES SUMMIT    CLOUDY    79  62  56 N16       29.88R
OLATHE - IXD   MOSUNNY   79  61  53 N16       29.90R
OLATHE - OJC   MOSUNNY   79  59  50 N16       29.89R
LAWRENCE       MOSUNNY   80  65  59 N10       29.91R

$$

MOZ001>008-011>017-020>025-030>033-038>040-044>046-053-054-231700-
...NORTHERN AND CENTRAL MISSOURI...

CITY           SKY/WX    TMP DP  RH WIND       PRES   REMARKS
ST. JOSEPH     SUNNY     77  62  59 N10       29.91S
WARRENSBURG    PTSUNNY   75  66  73 N9        29.86R
WHITEMAN AFB   PTSUNNY   77  70  79 N16G24    29.85R
CLINTON        MOSUNNY   72  72 100 N14       29.83R
SEDALIA        CLOUDY    77  69  76 N16       29.85R
WARSAW         NOT AVBL
CHILLICOTHE      N/A     79  64  60 MISG      29.88R
KIRKSVILLE     SUNNY     77  62  59 N10       29.84R

$$

MOZ041-047>049-056>058-063>065-088>090-097-231700-
...EASTERN AND SOUTHERN MISSOURI...

CITY           SKY/WX    TMP DP  RH WIND       PRES   REMARKS
ST. LOUIS INTL CLOUDY    82  70  66 N12       29.73R
SPIRIT OF STL  PTSUNNY   81  71  71 NW9       29.72S
COLUMBIA       PTSUNNY   77  70  79 N18G24    29.80R
JEFFERSON CITY PTSUNNY   78  67  68 N10       29.77S
ROLLA          CLOUDY    75  69  81 N14       29.78R
OSAGE BEACH    CLOUDY    74  71  91 N6        29.79R
SPRINGFIELD    PTSUNNY   82  74  76 NW9       29.78F
BRANSON        PTSUNNY   82  73  74 W5        29.83R
JOPLIN         LGT RAIN  81  76  84 NW12      29.81R
WEST PLAINS    PTSUNNY   84  70  62 N9        29.77R

$$

IAZ060-094-KSZ022-034>040-054-083-096-NEZ052-066-093-231700-
...KANSAS...SOUTHEAST NEBRASKA AND IOWA...

CITY           SKY/WX    TMP DP  RH WIND       PRES   REMARKS
TOPEKA         SUNNY     79  63  57 N13       29.92R
MANHATTAN      CLOUDY    75  54  47 N10G17    30.02R
EMPORIA        CLOUDY    78  57  48 N18G25    29.94R
CHANUTE        PTSUNNY   80  67  64 N16G22    29.87R
WICHITA        PTSUNNY   82  52  35 N24G33    29.96R
OMAHA          CLOUDY    69  50  50 NW24G30   29.99R
LINCOLN        PTSUNNY   68  48  48 N21G31    30.04R
FALLS CITY     CLOUDY    69  57  65 NW12G20   29.96R
LAMONI         SUNNY     78  53  41 N12       29.89R
DES MOINES     PTSUNNY   76  52  43 NW20G32   29.87R

$$





USA.gov is the U.S. government's official web portal to all federal, state and local government web resources and services.